FENGYUN 1C DEB

Satellite information

Favourite Embed

Satellite Type and Status

DEBRISIN ORBIT

Key statistics

Satellite FENGYUN 1C DEB at a glance.

Uptime

9715

Days in orbit

Revolutions

≈ 14.0

Per day

Orbit

SSO

Sun Synchronous Orbit

Inclination

99.4

Latest

Satellite identification and parameters

Extended collection of information and parameters for FENGYUN 1C DEB.

Object identification

Identified? True

Debris? True

Object name: FENGYUN 1C DEB

International designator: 1999-025DBR

Object number (NORAD): 32453

Object ID (CCSDS): 32453

Country: PEOPLES REPUBLIC OF CHINA (PRC)

Current information (Y/N): Y

RCS size: SMALL

Orbital parameters

Period: 102.692 minutes

Inclination: 99.3721 deg

SMA: 7264.137 km

Apoapsis: 955.917 km

Periapsis: 816.087 km

RAAN: 256.7263 deg

Eccentricy: 0.00962466

Argument of periapsis: 205.2664 deg

Mean anomaly: 154.3777 deg

Mean motion: 14.02254123 rev/day

Mean motion (dot): 0.00001433 rev/day2

B* drag term: 0.00092789099 1/REarth

Two-line elements (TLE)

Creation date: Dec. 13, 2025, 4:32 a.m.

Reference frame: TEME

Reference center: EARTH

Epoch: Dec. 13, 2025, 12:18 a.m. UTC

TLE line 0: 0 FENGYUN 1C DEB

TLE line 1: 1 32453U 99025DBR 25347.01266762 .00001433 00000-0 92789-3 0 9992

TLE line 2: 2 32453 99.3721 256.7263 0096247 205.2664 154.3777 14.02254123934323

Live tracking on map

Real-time ground track for satellite FENGYUN 1C DEB.

In-orbit conjunctions

A list of the most updated potential collisions computed for object FENGYUN 1C DEB.

Target Orbit TCA Probability of collision Miss distance Type
SL-14 R/B LEO 2025-12-03 12:59:51 0.0007434825 179.0 (m) ROCKET BODY
COSMOS 952 LEO 2025-01-06 03:52:51 0.001003907 143.0 (m) PAYLOAD

Associated space launch

Chinese polar orbiting meteorological satellite

FENGYUN 1C DEB was lifted into orbit during the mission ‘Long March 4B | Feng Yun 1C’, on board a Long March 4B space rocket.

The launch took place on May 10, 1999, 1:33 a.m. from Launch Complex 7.

For more information about the launch, click the button.

Launch to space Long March 4B | Feng Yun 1C
Long March 4B | Feng Yun 1C

Agency: N/A

Status: Launch Successful

Launch date: May 10, 1999, 1:33 a.m. UTC

Rocket: Long March 4B

Launch pad: Launch Complex 7

Location: Taiyuan Satellite Launch Center, People's Republic of China

...

Latest news about this satellite

There are no fresh news available about this satellite. Check back as we update our databases every day.


Newsletter sign-up

Weekly statistics, charts and insights to help you stay on top of the space industry.